Location: Newark
(46.7000°N, 60.6000°W)
Time: 15:14:53
(UTC+00:00)

A-11 Canister half - Pass Details

Date: 08 November 2020
Orbit: 1516 x 1684 km, 47.2° (Epoch: 03 December)

Event Time Altitude Azimuth Distance (km) Brightness Sun altitude
Rises 02:55:14 0° 290° (WNW) 4,928 12.0 -58.2°
Reaches altitude 10° 02:58:28 10° 287° (WNW) 3,926 11.3 -58.4°
Enters shadow 02:58:57 12° 286° (WNW) 3,778 11.2 -58.4°
